Location: Étouvelles
(49.5207°N, 3.5808°E)
Time: 08:04:57
(UTC+00:00)

CZ-4 R/B - Visible Passes

Search period start: 24 September 2023 00:00
Search period end: 04 October 2023 00:00
Orbit: 521 x 583 km, 97.7° (Epoch: 23 September)

Date Brightness Start Highest point End Pass type
(mag) Time Alt. Az. Time Alt. Az. Time Alt. Az.
24 Sep 2.1 18:11:19 10° SE 18:14:46 31° ENE 18:18:12 10° N visible
24 Sep 3.5 19:46:20 10° SSW 19:49:35 25° W 19:52:48 10° NW visible
25 Sep 2.2 18:07:46 10° SE 18:11:08 29° ENE 18:14:29 10° N visible
25 Sep 3.3 19:42:33 10° SSW 19:45:54 27° W 19:49:13 10° NW visible
26 Sep 2.3 18:04:13 10° SE 18:07:30 27° ENE 18:10:43 10° N visible
26 Sep 3.1 19:38:46 10° SSW 19:42:12 29° W 19:45:36 10° NNW visible
27 Sep 3.0 19:35:01 10° SSW 19:38:30 32° W 19:41:58 10° NNW visible
28 Sep 2.5 17:57:08 10° ESE 18:00:10 23° ENE 18:03:12 10° NNE visible
28 Sep 2.8 19:31:14 10° SSW 19:34:48 35° W 19:38:20 10° NNW visible
29 Sep 2.6 19:27:27 10° SSW 19:31:04 38° W 19:34:41 10° NNW visible
30 Sep 2.4 19:23:41 10° S 19:27:21 42° W 19:31:00 10° NNW visible
01 Oct 2.2 19:19:55 10° S 19:23:37 46° W 19:27:19 10° NNW visible
02 Oct 2.0 19:16:09 10° S 19:19:53 51° W 19:23:37 10° NNW visible
03 Oct 1.8 19:12:22 10° S 19:16:08 56° W 19:19:54 10° NNW visible
